Time,TemperatureF,DewpointF,PressureIn,WindDirection,WindDirectionDegrees,WindSpeedMPH,WindSpeedGustMPH,Humidity,HourlyPrecipIn,Conditions,Clouds,dailyrainin,SoftwareType,DateUTC
2013-09-10 00:01:00,73.4,66.0,28.58,SE,135,1.2,5.0,79,0.00,,,0.00,Rainwise IP-100,2013-09-10 05:01:00,
2013-09-10 00:06:00,73.3,66.0,28.58,ESE,112,2.6,4.0,79,0.00,,,0.00,Rainwise IP-100,2013-09-10 05:06:00,
2013-09-10 00:11:00,73.2,66.0,28.59,ESE,112,2.1,5.0,79,0.00,,,0.00,Rainwise IP-100,2013-09-10 05:11:00,
2013-09-10 00:16:00,73.0,66.0,28.59,ESE,112,1.2,3.0,80,0.00,,,0.00,Rainwise IP-100,2013-09-10 05:16:00,
2013-09-10 00:21:00,72.8,66.0,28.58,ESE,112,0.0,2.0,80,0.00,,,0.00,Rainwise IP-100,2013-09-10 05:21:00,
2013-09-10 00:26:00,72.7,66.0,28.59,SE,135,2.6,4.0,81,0.00,,,0.00,Rainwise IP-100,2013-09-10 05:26:00,
2013-09-10 00:31:00,72.6,66.0,28.59,SE,135,3.5,4.0,81,0.00,,,0.00,Rainwise IP-100,2013-09-10 05:31:00,
2013-09-10 00:36:00,72.6,66.0,28.58,ESE,112,1.6,4.0,81,0.00,,,0.00,Rainwise IP-100,2013-09-10 05:36:00,
2013-09-10 00:41:00,72.5,66.0,28.59,ESE,112,1.2,2.0,82,0.00,,,0.00,Rainwise IP-100,2013-09-10 05:41:00,
2013-09-10 00:46:00,72.3,66.0,28.58,ESE,112,1.9,3.0,82,0.00,,,0.00,Rainwise IP-100,2013-09-10 05:46:00,
2013-09-10 00:51:00,72.1,66.0,28.59,ESE,112,0.0,2.0,82,0.00,,,0.00,Rainwise IP-100,2013-09-10 05:51:00,
2013-09-10 00:56:00,72.0,66.0,28.59,SE,135,1.4,4.0,83,0.00,,,0.00,Rainwise IP-100,2013-09-10 05:56:00,
2013-09-10 01:01:00,71.9,66.0,28.58,ESE,112,1.9,2.0,83,0.00,,,0.00,Rainwise IP-100,2013-09-10 06:01:00,
2013-09-10 01:06:00,71.9,66.0,28.59,ESE,112,3.0,3.0,84,0.00,,,0.00,Rainwise IP-100,2013-09-10 06:06:00,
2013-09-10 01:11:00,71.8,66.0,28.59,ESE,112,1.9,4.0,84,0.00,,,0.00,Rainwise IP-100,2013-09-10 06:11:00,
2013-09-10 01:16:00,71.7,66.0,28.59,SE,135,1.9,3.0,84,0.00,,,0.00,Rainwise IP-100,2013-09-10 06:16:00,
2013-09-10 01:21:00,71.6,66.0,28.59,SE,135,2.3,2.3,85,0.00,,,0.00,Rainwise IP-100,2013-09-10 06:21:00,
2013-09-10 01:26:00,71.6,66.0,28.59,ESE,112,1.9,4.0,85,0.00,,,0.00,Rainwise IP-100,2013-09-10 06:26:00,
2013-09-10 01:31:00,71.6,66.0,28.59,ESE,112,3.0,5.0,85,0.00,,,0.00,Rainwise IP-100,2013-09-10 06:31:00,
2013-09-10 01:36:00,71.6,67.0,28.59,ESE,112,1.6,3.0,86,0.00,,,0.00,Rainwise IP-100,2013-09-10 06:36:00,
2013-09-10 01:41:00,71.6,67.0,28.59,ESE,112,2.1,3.0,86,0.00,,,0.00,Rainwise IP-100,2013-09-10 06:41:00,
2013-09-10 01:46:00,71.5,67.0,28.59,ESE,112,1.9,4.0,86,0.00,,,0.00,Rainwise IP-100,2013-09-10 06:46:00,
2013-09-10 01:51:00,71.4,66.0,28.59,ESE,112,2.6,3.0,86,0.00,,,0.00,Rainwise IP-100,2013-09-10 06:51:00,
2013-09-10 01:56:00,71.4,67.0,28.59,East,90,1.4,4.0,87,0.00,,,0.00,Rainwise IP-100,2013-09-10 06:56:00,
2013-09-10 02:01:00,71.3,67.0,28.59,ESE,112,0.0,2.0,87,0.00,,,0.00,Rainwise IP-100,2013-09-10 07:01:00,
2013-09-10 02:06:00,71.2,67.0,28.59,ENE,67,2.3,3.0,87,0.00,,,0.00,Rainwise IP-100,2013-09-10 07:06:00,
2013-09-10 02:11:00,71.1,66.0,28.59,East,90,1.6,3.0,87,0.00,,,0.00,Rainwise IP-100,2013-09-10 07:11:00,
2013-09-10 02:16:00,71.0,67.0,28.59,East,90,1.4,3.0,88,0.00,,,0.00,Rainwise IP-100,2013-09-10 07:16:00,
2013-09-10 02:21:00,70.9,67.0,28.59,East,90,2.3,4.0,88,0.00,,,0.00,Rainwise IP-100,2013-09-10 07:21:00,
2013-09-10 02:26:00,70.8,66.0,28.59,East,90,2.6,3.0,88,0.00,,,0.00,Rainwise IP-100,2013-09-10 07:26:00,
2013-09-10 02:31:00,70.8,67.0,28.59,East,90,2.6,3.0,89,0.00,,,0.00,Rainwise IP-100,2013-09-10 07:31:00,
2013-09-10 02:36:00,70.8,67.0,28.59,ESE,112,2.3,4.0,89,0.00,,,0.00,Rainwise IP-100,2013-09-10 07:36:00,
2013-09-10 02:41:00,70.8,67.0,28.60,ESE,112,1.6,4.0,89,0.00,,,0.00,Rainwise IP-100,2013-09-10 07:41:00,
2013-09-10 02:46:00,70.8,67.0,28.59,ESE,112,1.2,4.0,89,0.00,,,0.00,Rainwise IP-100,2013-09-10 07:46:00,
2013-09-10 02:51:00,70.7,67.0,28.59,ESE,112,2.8,2.8,90,0.00,,,0.00,Rainwise IP-100,2013-09-10 07:51:00,
2013-09-10 02:56:00,70.7,67.0,28.59,East,90,2.1,3.0,90,0.00,,,0.00,Rainwise IP-100,2013-09-10 07:56:00,
2013-09-10 03:01:00,70.6,67.0,28.59,ESE,112,0.0,2.0,90,0.00,,,0.00,Rainwise IP-100,2013-09-10 08:01:00,
2013-09-10 03:06:00,70.6,67.0,28.59,East,90,1.6,4.0,90,0.00,,,0.00,Rainwise IP-100,2013-09-10 08:06:00,
2013-09-10 03:11:00,70.6,67.0,28.60,ENE,67,0.0,4.0,90,0.00,,,0.00,Rainwise IP-100,2013-09-10 08:11:00,
2013-09-10 03:16:00,70.5,67.0,28.59,ESE,112,0.0,3.0,91,0.00,,,0.00,Rainwise IP-100,2013-09-10 08:16:00,
2013-09-10 03:21:00,70.5,67.0,28.60,East,90,1.6,3.0,91,0.00,,,0.00,Rainwise IP-100,2013-09-10 08:21:00,
2013-09-10 03:26:00,70.4,67.0,28.59,ESE,112,1.9,4.0,91,0.00,,,0.00,Rainwise IP-100,2013-09-10 08:26:00,
2013-09-10 03:31:00,70.3,67.0,28.59,ESE,112,1.9,4.0,91,0.00,,,0.00,Rainwise IP-100,2013-09-10 08:31:00,
2013-09-10 03:36:00,70.3,67.0,28.59,ESE,112,1.4,3.0,91,0.00,,,0.00,Rainwise IP-100,2013-09-10 08:36:00,
2013-09-10 03:41:00,70.3,67.0,28.59,SE,135,2.8,5.0,92,0.00,,,0.00,Rainwise IP-100,2013-09-10 08:41:00,
2013-09-10 03:46:00,70.3,67.0,28.59,SE,135,2.1,4.0,92,0.00,,,0.00,Rainwise IP-100,2013-09-10 08:46:00,
2013-09-10 03:51:00,70.3,67.0,28.59,SE,135,1.6,4.0,92,0.00,,,0.00,Rainwise IP-100,2013-09-10 08:51:00,
2013-09-10 03:56:00,70.4,68.0,28.60,ESE,112,2.1,3.0,92,0.00,,,0.00,Rainwise IP-100,2013-09-10 08:56:00,
2013-09-10 04:01:00,70.3,67.0,28.60,ESE,112,2.1,4.0,92,0.00,,,0.00,Rainwise IP-100,2013-09-10 09:01:00,
2013-09-10 04:06:00,70.2,67.0,28.60,SE,135,2.3,4.0,92,0.00,,,0.00,Rainwise IP-100,2013-09-10 09:06:00,
2013-09-10 04:11:00,70.2,68.0,28.60,ESE,112,2.3,3.0,93,0.00,,,0.00,Rainwise IP-100,2013-09-10 09:11:00,
2013-09-10 04:16:00,70.2,68.0,28.60,ESE,112,4.9,5.0,93,0.00,,,0.00,Rainwise IP-100,2013-09-10 09:16:00,
2013-09-10 04:21:00,70.3,68.0,28.60,ESE,112,1.6,5.0,93,0.00,,,0.00,Rainwise IP-100,2013-09-10 09:21:00,
2013-09-10 04:26:00,70.3,68.0,28.60,ESE,112,0.0,6.0,93,0.00,,,0.00,Rainwise IP-100,2013-09-10 09:26:00,
2013-09-10 04:31:00,70.3,68.0,28.60,ESE,112,1.6,4.0,93,0.00,,,0.00,Rainwise IP-100,2013-09-10 09:31:00,
2013-09-10 04:36:00,70.3,68.0,28.60,SSE,157,3.3,4.0,93,0.00,,,0.00,Rainwise IP-100,2013-09-10 09:36:00,
2013-09-10 04:41:00,70.3,68.0,28.60,SE,135,1.4,5.0,93,0.00,,,0.00,Rainwise IP-100,2013-09-10 09:41:00,
2013-09-10 04:46:00,70.2,68.0,28.60,SE,135,3.0,3.0,93,0.00,,,0.00,Rainwise IP-100,2013-09-10 09:46:00,
2013-09-10 04:51:00,70.1,68.0,28.60,East,90,2.1,4.0,93,0.00,,,0.00,Rainwise IP-100,2013-09-10 09:51:00,
2013-09-10 04:56:00,70.0,68.0,28.60,East,90,1.9,3.0,93,0.00,,,0.00,Rainwise IP-100,2013-09-10 09:56:00,
2013-09-10 05:01:00,69.9,68.0,28.60,ESE,112,2.8,4.0,94,0.00,,,0.00,Rainwise IP-100,2013-09-10 10:01:00,
2013-09-10 05:06:00,69.9,68.0,28.60,East,90,2.8,5.0,94,0.00,,,0.00,Rainwise IP-100,2013-09-10 10:06:00,
2013-09-10 05:11:00,69.9,68.0,28.60,East,90,2.6,5.0,94,0.00,,,0.00,Rainwise IP-100,2013-09-10 10:11:00,
2013-09-10 05:16:00,70.1,68.0,28.60,ESE,112,2.1,5.0,94,0.00,,,0.00,Rainwise IP-100,2013-09-10 10:16:00,
2013-09-10 05:21:00,70.3,68.0,28.60,East,90,4.2,4.2,94,0.00,,,0.00,Rainwise IP-100,2013-09-10 10:21:00,
2013-09-10 05:26:00,70.3,68.0,28.60,ESE,112,3.3,4.0,94,0.00,,,0.00,Rainwise IP-100,2013-09-10 10:26:00,
2013-09-10 05:31:00,70.3,68.0,28.60,East,90,3.0,4.0,94,0.00,,,0.00,Rainwise IP-100,2013-09-10 10:31:00,
2013-09-10 05:36:00,70.4,69.0,28.60,ESE,112,2.3,4.0,94,0.00,,,0.00,Rainwise IP-100,2013-09-10 10:36:00,
2013-09-10 05:41:00,70.5,69.0,28.61,East,90,1.6,5.0,94,0.00,,,0.00,Rainwise IP-100,2013-09-10 10:41:00,
2013-09-10 05:46:00,70.6,69.0,28.61,ENE,67,1.4,5.0,94,0.00,,,0.00,Rainwise IP-100,2013-09-10 10:46:00,
2013-09-10 05:51:00,70.6,69.0,28.61,ENE,67,2.1,5.0,94,0.00,,,0.00,Rainwise IP-100,2013-09-10 10:51:00,
2013-09-10 05:56:00,70.5,69.0,28.60,East,90,2.6,5.0,94,0.00,,,0.00,Rainwise IP-100,2013-09-10 10:56:00,
2013-09-10 06:01:00,70.5,69.0,28.61,ESE,112,2.6,4.0,94,0.00,,,0.00,Rainwise IP-100,2013-09-10 11:01:00,
2013-09-10 06:06:00,70.5,69.0,28.61,East,90,3.0,5.0,94,0.00,,,0.00,Rainwise IP-100,2013-09-10 11:06:00,
2013-09-10 06:11:00,70.4,69.0,28.61,ESE,112,2.8,6.0,94,0.00,,,0.00,Rainwise IP-100,2013-09-10 11:11:00,
2013-09-10 06:16:00,70.3,68.0,28.61,ESE,112,3.0,6.0,94,0.00,,,0.00,Rainwise IP-100,2013-09-10 11:16:00,
2013-09-10 06:21:00,70.3,68.0,28.61,East,90,4.4,6.0,94,0.00,,,0.00,Rainwise IP-100,2013-09-10 11:21:00,
2013-09-10 06:26:00,70.3,68.0,28.61,East,90,6.1,6.1,94,0.00,,,0.00,Rainwise IP-100,2013-09-10 11:26:00,
2013-09-10 06:31:00,70.3,68.0,28.61,SE,135,1.4,7.0,94,0.00,,,0.00,Rainwise IP-100,2013-09-10 11:31:00,
2013-09-10 06:36:00,70.3,68.0,28.61,ESE,112,2.1,5.0,94,0.00,,,0.00,Rainwise IP-100,2013-09-10 11:36:00,
2013-09-10 06:41:00,70.2,68.0,28.61,ESE,112,2.1,4.0,95,0.00,,,0.00,Rainwise IP-100,2013-09-10 11:41:00,
2013-09-10 06:46:00,70.2,68.0,28.61,ESE,112,0.0,4.0,95,0.00,,,0.00,Rainwise IP-100,2013-09-10 11:46:00,
2013-09-10 06:51:00,70.3,68.0,28.61,ESE,112,1.6,4.0,95,0.00,,,0.00,Rainwise IP-100,2013-09-10 11:51:00,
2013-09-10 06:56:00,70.2,68.0,28.61,ESE,112,0.0,4.0,95,0.00,,,0.00,Rainwise IP-100,2013-09-10 11:56:00,
2013-09-10 07:01:00,70.1,68.0,28.61,ESE,112,1.9,4.0,95,0.00,,,0.00,Rainwise IP-100,2013-09-10 12:01:00,
2013-09-10 07:06:00,70.2,68.0,28.62,SE,135,3.3,5.0,95,0.00,,,0.00,Rainwise IP-100,2013-09-10 12:06:00,
2013-09-10 07:11:00,70.2,68.0,28.61,East,90,3.7,7.0,95,0.00,,,0.00,Rainwise IP-100,2013-09-10 12:11:00,
2013-09-10 07:16:00,70.3,68.0,28.62,ESE,112,3.0,5.0,95,0.00,,,0.00,Rainwise IP-100,2013-09-10 12:16:00,
2013-09-10 07:21:00,70.3,69.0,28.62,SE,135,4.2,6.0,96,0.00,,,0.00,Rainwise IP-100,2013-09-10 12:21:00,
2013-09-10 07:26:00,70.3,69.0,28.62,East,90,1.9,5.0,96,0.00,,,0.00,Rainwise IP-100,2013-09-10 12:26:00,
2013-09-10 07:31:00,70.3,69.0,28.62,ESE,112,3.5,6.0,96,0.00,,,0.00,Rainwise IP-100,2013-09-10 12:31:00,
2013-09-10 07:36:00,70.3,69.0,28.62,ESE,112,3.3,5.0,96,0.00,,,0.00,Rainwise IP-100,2013-09-10 12:36:00,
2013-09-10 07:41:00,70.3,69.0,28.62,East,90,3.7,7.0,96,0.00,,,0.00,Rainwise IP-100,2013-09-10 12:41:00,
2013-09-10 07:46:00,70.5,69.0,28.63,ESE,112,1.6,5.0,96,0.00,,,0.00,Rainwise IP-100,2013-09-10 12:46:00,
2013-09-10 07:51:00,70.6,69.0,28.63,ESE,112,4.4,6.0,96,0.00,,,0.00,Rainwise IP-100,2013-09-10 12:51:00,
2013-09-10 07:56:00,70.8,69.0,28.63,East,90,4.9,7.0,95,0.00,,,0.00,Rainwise IP-100,2013-09-10 12:56:00,
2013-09-10 08:01:00,71.2,69.0,28.64,ESE,112,3.5,8.0,95,0.00,,,0.00,Rainwise IP-100,2013-09-10 13:01:00,
2013-09-10 08:06:00,71.5,69.0,28.63,SE,135,4.4,7.0,94,0.00,,,0.00,Rainwise IP-100,2013-09-10 13:06:00,
2013-09-10 08:11:00,71.8,69.0,28.63,SSE,157,0.0,7.0,93,0.00,,,0.00,Rainwise IP-100,2013-09-10 13:11:00,
2013-09-10 08:16:00,72.1,69.0,28.64,SSE,157,1.2,7.0,93,0.00,,,0.00,Rainwise IP-100,2013-09-10 13:16:00,
2013-09-10 08:21:00,72.7,70.0,28.63,SSW,202,4.2,7.0,92,0.00,,,0.00,Rainwise IP-100,2013-09-10 13:21:00,
2013-09-10 08:26:00,73.1,70.0,28.64,East,90,4.7,7.0,91,0.00,,,0.00,Rainwise IP-100,2013-09-10 13:26:00,
2013-09-10 08:31:00,73.3,70.0,28.64,ESE,112,3.0,8.0,90,0.00,,,0.00,Rainwise IP-100,2013-09-10 13:31:00,
2013-09-10 08:36:00,73.6,70.0,28.63,SSE,157,4.9,10.0,89,0.00,,,0.00,Rainwise IP-100,2013-09-10 13:36:00,
2013-09-10 08:41:00,73.6,70.0,28.64,SE,135,3.7,9.0,89,0.00,,,0.00,Rainwise IP-100,2013-09-10 13:41:00,
2013-09-10 08:46:00,73.9,70.0,28.64,SSE,157,3.7,8.0,88,0.00,,,0.00,Rainwise IP-100,2013-09-10 13:46:00,
2013-09-10 08:51:00,74.4,70.0,28.64,SSE,157,1.9,8.0,87,0.00,,,0.00,Rainwise IP-100,2013-09-10 13:51:00,
2013-09-10 08:56:00,74.6,70.0,28.64,SE,135,3.7,9.0,86,0.00,,,0.00,Rainwise IP-100,2013-09-10 13:56:00,
2013-09-10 09:01:00,74.5,70.0,28.64,ESE,112,6.5,9.0,86,0.00,,,0.00,Rainwise IP-100,2013-09-10 14:01:00,
2013-09-10 09:06:00,74.5,70.0,28.64,ESE,112,1.9,10.0,86,0.00,,,0.00,Rainwise IP-100,2013-09-10 14:06:00,
2013-09-10 09:11:00,74.7,70.0,28.64,SE,135,4.9,8.0,86,0.00,,,0.00,Rainwise IP-100,2013-09-10 14:11:00,
2013-09-10 09:16:00,75.2,70.0,28.64,SSE,157,4.4,10.0,85,0.00,,,0.00,Rainwise IP-100,2013-09-10 14:16:00,
2013-09-10 09:21:00,75.8,70.0,28.65,SSE,157,6.3,11.0,83,0.00,,,0.00,Rainwise IP-100,2013-09-10 14:21:00,
2013-09-10 09:26:00,75.8,69.0,28.65,SE,135,3.0,11.0,82,0.00,,,0.00,Rainwise IP-100,2013-09-10 14:26:00,
2013-09-10 09:31:00,75.7,69.0,28.65,ESE,112,6.8,11.0,82,0.00,,,0.00,Rainwise IP-100,2013-09-10 14:31:00,
2013-09-10 09:36:00,75.9,70.0,28.65,SE,135,6.3,12.0,82,0.00,,,0.00,Rainwise IP-100,2013-09-10 14:36:00,
2013-09-10 09:41:00,75.9,69.0,28.65,SSE,157,6.5,11.0,81,0.00,,,0.00,Rainwise IP-100,2013-09-10 14:41:00,
2013-09-10 09:46:00,76.3,70.0,28.65,SE,135,9.1,11.0,81,0.00,,,0.00,Rainwise IP-100,2013-09-10 14:46:00,
2013-09-10 09:51:00,77.2,70.0,28.65,SE,135,5.1,13.0,79,0.00,,,0.00,Rainwise IP-100,2013-09-10 14:51:00,
2013-09-10 09:56:00,77.4,69.0,28.65,SSE,157,4.4,13.0,77,0.00,,,0.00,Rainwise IP-100,2013-09-10 14:56:00,
2013-09-10 10:01:00,76.9,69.0,28.66,SE,135,5.4,11.0,77,0.00,,,0.00,Rainwise IP-100,2013-09-10 15:01:00,
2013-09-10 10:06:00,76.9,69.0,28.66,SE,135,1.9,12.0,77,0.00,,,0.00,Rainwise IP-100,2013-09-10 15:06:00,
2013-09-10 10:11:00,77.5,69.0,28.66,South,180,5.1,12.0,76,0.00,,,0.00,Rainwise IP-100,2013-09-10 15:11:00,
2013-09-10 10:16:00,77.7,69.0,28.66,ESE,112,11.2,12.0,75,0.00,,,0.00,Rainwise IP-100,2013-09-10 15:16:00,
2013-09-10 10:21:00,77.2,69.0,28.66,ESE,112,6.1,13.0,75,0.00,,,0.00,Rainwise IP-100,2013-09-10 15:21:00,
2013-09-10 10:26:00,77.1,69.0,28.66,South,180,10.0,10.0,75,0.00,,,0.00,Rainwise IP-100,2013-09-10 15:26:00,
2013-09-10 10:31:00,77.6,69.0,28.66,SSE,157,1.6,10.0,75,0.00,,,0.00,Rainwise IP-100,2013-09-10 15:31:00,
2013-09-10 10:36:00,78.2,69.0,28.66,ESE,112,5.4,11.0,74,0.00,,,0.00,Rainwise IP-100,2013-09-10 15:36:00,
2013-09-10 10:41:00,78.3,69.0,28.66,SSE,157,4.7,12.0,72,0.00,,,0.00,Rainwise IP-100,2013-09-10 15:41:00,
2013-09-10 10:46:00,78.2,69.0,28.67,SSE,157,7.9,12.0,72,0.00,,,0.00,Rainwise IP-100,2013-09-10 15:46:00,
2013-09-10 10:51:00,78.4,69.0,28.67,ESE,112,6.3,10.0,72,0.00,,,0.00,Rainwise IP-100,2013-09-10 15:51:00,
2013-09-10 10:56:00,79.0,69.0,28.66,SE,135,6.5,14.0,71,0.00,,,0.00,Rainwise IP-100,2013-09-10 15:56:00,
2013-09-10 11:01:00,80.0,69.0,28.67,ESE,112,6.5,12.0,69,0.00,,,0.00,Rainwise IP-100,2013-09-10 16:01:00,
2013-09-10 11:06:00,80.4,68.0,28.66,ESE,112,4.2,16.0,67,0.00,,,0.00,Rainwise IP-100,2013-09-10 16:06:00,
2013-09-10 11:11:00,80.4,68.0,28.67,ESE,112,7.0,14.0,66,0.00,,,0.00,Rainwise IP-100,2013-09-10 16:11:00,
2013-09-10 11:16:00,80.5,68.0,28.67,ESE,112,7.5,11.0,66,0.00,,,0.00,Rainwise IP-100,2013-09-10 16:16:00,
2013-09-10 11:21:00,80.9,68.0,28.67,East,90,7.9,13.0,65,0.00,,,0.00,Rainwise IP-100,2013-09-10 16:21:00,
2013-09-10 11:26:00,81.2,67.0,28.67,NE,45,3.0,14.0,63,0.00,,,0.00,Rainwise IP-100,2013-09-10 16:26:00,
2013-09-10 11:31:00,81.1,67.0,28.67,SE,135,4.9,11.0,63,0.00,,,0.00,Rainwise IP-100,2013-09-10 16:31:00,
2013-09-10 11:36:00,80.7,67.0,28.67,SE,135,5.6,12.0,63,0.00,,,0.00,Rainwise IP-100,2013-09-10 16:36:00,
2013-09-10 11:41:00,80.7,67.0,28.67,SSE,157,8.6,10.0,63,0.00,,,0.00,Rainwise IP-100,2013-09-10 16:41:00,
2013-09-10 11:46:00,80.9,66.0,28.66,ESE,112,8.6,10.0,62,0.00,,,0.00,Rainwise IP-100,2013-09-10 16:46:00,
2013-09-10 11:51:00,80.6,66.0,28.66,ESE,112,7.2,11.0,61,0.00,,,0.00,Rainwise IP-100,2013-09-10 16:51:00,
2013-09-10 11:56:00,80.5,66.0,28.66,SSE,157,5.4,11.0,62,0.00,,,0.00,Rainwise IP-100,2013-09-10 16:56:00,
2013-09-10 12:01:00,81.7,67.0,28.67,SE,135,3.7,10.0,62,0.00,,,0.00,Rainwise IP-100,2013-09-10 17:01:00,
2013-09-10 12:06:00,82.8,67.0,28.67,ESE,112,7.9,16.0,60,0.00,,,0.00,Rainwise IP-100,2013-09-10 17:06:00,
2013-09-10 12:11:00,83.0,66.0,28.67,South,180,6.8,14.0,58,0.00,,,0.00,Rainwise IP-100,2013-09-10 17:11:00,
2013-09-10 12:16:00,82.9,66.0,28.66,ESE,112,4.4,12.0,58,0.00,,,0.00,Rainwise IP-100,2013-09-10 17:16:00,
2013-09-10 12:21:00,82.7,66.0,28.66,ESE,112,7.2,12.0,58,0.00,,,0.00,Rainwise IP-100,2013-09-10 17:21:00,
2013-09-10 12:26:00,82.2,66.0,28.67,SSE,157,4.2,10.0,58,0.00,,,0.00,Rainwise IP-100,2013-09-10 17:26:00,
2013-09-10 12:31:00,82.6,66.0,28.66,SSE,157,7.7,13.0,57,0.00,,,0.00,Rainwise IP-100,2013-09-10 17:31:00,
2013-09-10 12:36:00,83.1,66.0,28.66,East,90,3.3,13.0,57,0.00,,,0.00,Rainwise IP-100,2013-09-10 17:36:00,
2013-09-10 12:41:00,82.8,66.0,28.66,South,180,8.9,13.0,57,0.00,,,0.00,Rainwise IP-100,2013-09-10 17:41:00,
2013-09-10 12:46:00,83.3,66.0,28.66,SE,135,7.9,10.0,56,0.00,,,0.00,Rainwise IP-100,2013-09-10 17:46:00,
2013-09-10 12:51:00,83.7,66.0,28.66,SE,135,9.6,13.0,56,0.00,,,0.00,Rainwise IP-100,2013-09-10 17:51:00,
2013-09-10 12:56:00,83.5,66.0,28.65,ENE,67,7.5,13.0,56,0.00,,,0.00,Rainwise IP-100,2013-09-10 17:56:00,
2013-09-10 13:01:00,84.0,66.0,28.66,SSE,157,5.4,11.0,55,0.00,,,0.00,Rainwise IP-100,2013-09-10 18:01:00,
2013-09-10 13:06:00,84.7,66.0,28.65,ESE,112,7.0,15.0,53,0.00,,,0.00,Rainwise IP-100,2013-09-10 18:06:00,
2013-09-10 13:11:00,84.6,66.0,28.65,SE,135,9.6,12.0,53,0.00,,,0.00,Rainwise IP-100,2013-09-10 18:11:00,
2013-09-10 13:16:00,84.0,65.0,28.65,SSE,157,6.5,10.0,53,0.00,,,0.00,Rainwise IP-100,2013-09-10 18:16:00,
2013-09-10 13:21:00,83.9,66.0,28.65,ESE,112,8.2,15.0,54,0.00,,,0.00,Rainwise IP-100,2013-09-10 18:21:00,
2013-09-10 13:26:00,84.3,65.0,28.64,ESE,112,5.6,11.0,53,0.00,,,0.00,Rainwise IP-100,2013-09-10 18:26:00,
2013-09-10 13:31:00,84.6,66.0,28.64,SE,135,7.2,10.0,53,0.00,,,0.00,Rainwise IP-100,2013-09-10 18:31:00,
2013-09-10 13:36:00,84.6,65.0,28.64,SSE,157,2.6,11.0,52,0.00,,,0.00,Rainwise IP-100,2013-09-10 18:36:00,
2013-09-10 13:41:00,84.9,65.0,28.64,ESE,112,6.5,11.0,52,0.00,,,0.00,Rainwise IP-100,2013-09-10 18:41:00,
2013-09-10 13:46:00,85.5,65.0,28.64,ESE,112,7.2,12.0,51,0.00,,,0.00,Rainwise IP-100,2013-09-10 18:46:00,
2013-09-10 13:51:00,85.7,65.0,28.64,ESE,112,5.1,12.0,51,0.00,,,0.00,Rainwise IP-100,2013-09-10 18:51:00,
2013-09-10 13:56:00,85.3,65.0,28.64,South,180,6.5,10.0,51,0.00,,,0.00,Rainwise IP-100,2013-09-10 18:56:00,
2013-09-10 14:01:00,85.2,65.0,28.63,SE,135,5.6,10.0,52,0.00,,,0.00,Rainwise IP-100,2013-09-10 19:01:00,
2013-09-10 14:06:00,85.0,65.0,28.64,SSE,157,7.0,11.0,52,0.00,,,0.00,Rainwise IP-100,2013-09-10 19:06:00,
2013-09-10 14:11:00,85.2,65.0,28.63,ENE,67,6.3,14.0,52,0.00,,,0.00,Rainwise IP-100,2013-09-10 19:11:00,
2013-09-10 14:16:00,85.8,65.0,28.63,ESE,112,2.8,12.0,51,0.00,,,0.00,Rainwise IP-100,2013-09-10 19:16:00,
2013-09-10 14:21:00,86.6,66.0,28.63,ESE,112,1.6,10.0,50,0.00,,,0.00,Rainwise IP-100,2013-09-10 19:21:00,
2013-09-10 14:26:00,87.2,66.0,28.63,SE,135,9.3,12.0,50,0.00,,,0.00,Rainwise IP-100,2013-09-10 19:26:00,
2013-09-10 14:31:00,86.7,66.0,28.63,ENE,67,6.5,14.0,50,0.00,,,0.00,Rainwise IP-100,2013-09-10 19:31:00,
2013-09-10 14:36:00,86.6,66.0,28.63,East,90,5.6,13.0,50,0.00,,,0.00,Rainwise IP-100,2013-09-10 19:36:00,
2013-09-10 14:41:00,86.7,65.0,28.62,SSE,157,4.4,11.0,49,0.00,,,0.00,Rainwise IP-100,2013-09-10 19:41:00,
2013-09-10 14:46:00,86.9,65.0,28.61,East,90,4.4,11.0,49,0.00,,,0.00,Rainwise IP-100,2013-09-10 19:46:00,
2013-09-10 14:51:00,87.5,65.0,28.62,SSE,157,5.6,13.0,48,0.00,,,0.00,Rainwise IP-100,2013-09-10 19:51:00,
2013-09-10 14:56:00,87.6,65.0,28.62,SE,135,5.1,11.0,47,0.00,,,0.00,Rainwise IP-100,2013-09-10 19:56:00,
2013-09-10 15:01:00,87.0,65.0,28.62,ESE,112,4.2,9.0,48,0.00,,,0.00,Rainwise IP-100,2013-09-10 20:01:00,
2013-09-10 15:06:00,86.3,64.0,28.61,SE,135,7.2,12.0,48,0.00,,,0.00,Rainwise IP-100,2013-09-10 20:06:00,
2013-09-10 15:11:00,86.3,64.0,28.61,ESE,112,3.7,11.0,48,0.00,,,0.00,Rainwise IP-100,2013-09-10 20:11:00,
2013-09-10 15:16:00,86.6,64.0,28.61,SE,135,6.8,10.0,48,0.00,,,0.00,Rainwise IP-100,2013-09-10 20:16:00,
2013-09-10 15:21:00,86.5,64.0,28.61,SE,135,4.0,10.0,48,0.00,,,0.00,Rainwise IP-100,2013-09-10 20:21:00,
2013-09-10 15:26:00,86.9,65.0,28.60,SE,135,3.3,9.0,48,0.00,,,0.00,Rainwise IP-100,2013-09-10 20:26:00,
2013-09-10 15:31:00,87.4,65.0,28.60,SSE,157,3.3,13.0,47,0.00,,,0.00,Rainwise IP-100,2013-09-10 20:31:00,
2013-09-10 15:36:00,87.6,65.0,28.59,East,90,6.5,11.0,47,0.00,,,0.00,Rainwise IP-100,2013-09-10 20:36:00,
2013-09-10 15:41:00,88.0,65.0,28.59,ESE,112,5.6,11.0,46,0.00,,,0.00,Rainwise IP-100,2013-09-10 20:41:00,
2013-09-10 15:46:00,88.3,64.0,28.58,East,90,4.4,14.0,45,0.00,,,0.00,Rainwise IP-100,2013-09-10 20:46:00,
2013-09-10 15:51:00,88.8,64.0,28.58,SE,135,6.8,10.0,44,0.00,,,0.00,Rainwise IP-100,2013-09-10 20:51:00,
2013-09-10 15:56:00,89.5,65.0,28.59,SE,135,5.4,11.0,44,0.00,,,0.00,Rainwise IP-100,2013-09-10 20:56:00,
2013-09-10 16:01:00,89.6,64.0,28.58,East,90,5.8,10.0,43,0.00,,,0.00,Rainwise IP-100,2013-09-10 21:01:00,
2013-09-10 16:06:00,89.7,64.0,28.57,SSE,157,6.3,12.0,43,0.00,,,0.00,Rainwise IP-100,2013-09-10 21:06:00,
2013-09-10 16:11:00,90.5,64.0,28.58,South,180,11.2,14.0,42,0.00,,,0.00,Rainwise IP-100,2013-09-10 21:11:00,
2013-09-10 16:16:00,90.5,64.0,28.58,SSE,157,6.8,15.0,42,0.00,,,0.00,Rainwise IP-100,2013-09-10 21:16:00,
2013-09-10 16:21:00,89.8,63.0,28.58,SSE,157,5.1,12.0,42,0.00,,,0.00,Rainwise IP-100,2013-09-10 21:21:00,
2013-09-10 16:26:00,89.0,63.0,28.57,SSE,157,4.2,13.0,43,0.00,,,0.00,Rainwise IP-100,2013-09-10 21:26:00,
2013-09-10 16:31:00,89.5,64.0,28.57,SSE,157,6.1,17.0,43,0.00,,,0.00,Rainwise IP-100,2013-09-10 21:31:00,
2013-09-10 16:36:00,90.1,64.0,28.57,South,180,8.4,14.0,43,0.00,,,0.00,Rainwise IP-100,2013-09-10 21:36:00,
2013-09-10 16:41:00,89.9,64.0,28.57,ESE,112,11.4,13.0,43,0.00,,,0.00,Rainwise IP-100,2013-09-10 21:41:00,
2013-09-10 16:46:00,90.0,64.0,28.57,East,90,6.8,12.0,43,0.00,,,0.00,Rainwise IP-100,2013-09-10 21:46:00,
2013-09-10 16:51:00,89.1,64.0,28.57,SSE,157,8.6,13.0,44,0.00,,,0.00,Rainwise IP-100,2013-09-10 21:51:00,
2013-09-10 16:56:00,88.0,65.0,28.57,East,90,2.6,10.0,46,0.00,,,0.00,Rainwise IP-100,2013-09-10 21:56:00,
2013-09-10 17:01:00,88.4,65.0,28.57,ENE,67,4.0,12.0,46,0.00,,,0.00,Rainwise IP-100,2013-09-10 22:01:00,
2013-09-10 17:06:00,88.7,65.0,28.57,East,90,7.7,11.0,45,0.00,,,0.00,Rainwise IP-100,2013-09-10 22:06:00,
2013-09-10 17:11:00,88.8,65.0,28.57,East,90,5.6,10.0,45,0.00,,,0.00,Rainwise IP-100,2013-09-10 22:11:00,
2013-09-10 17:16:00,88.7,64.0,28.57,ESE,112,2.6,11.0,44,0.00,,,0.00,Rainwise IP-100,2013-09-10 22:16:00,
2013-09-10 17:21:00,88.8,64.0,28.57,ENE,67,4.4,7.0,44,0.00,,,0.00,Rainwise IP-100,2013-09-10 22:21:00,
2013-09-10 17:26:00,89.7,65.0,28.57,ESE,112,8.4,11.0,44,0.00,,,0.00,Rainwise IP-100,2013-09-10 22:26:00,
2013-09-10 17:31:00,90.1,64.0,28.57,ENE,67,7.7,18.0,43,0.00,,,0.00,Rainwise IP-100,2013-09-10 22:31:00,
2013-09-10 17:36:00,89.8,64.0,28.57,ENE,67,5.4,15.0,43,0.00,,,0.00,Rainwise IP-100,2013-09-10 22:36:00,
2013-09-10 17:41:00,88.6,64.0,28.57,ENE,67,9.6,16.0,45,0.00,,,0.00,Rainwise IP-100,2013-09-10 22:41:00,
2013-09-10 17:46:00,87.8,65.0,28.57,East,90,12.6,16.0,47,0.00,,,0.00,Rainwise IP-100,2013-09-10 22:46:00,
2013-09-10 17:51:00,87.6,65.0,28.56,SE,135,6.5,16.0,47,0.00,,,0.00,Rainwise IP-100,2013-09-10 22:51:00,
2013-09-10 17:56:00,88.0,65.0,28.57,East,90,10.7,16.0,47,0.00,,,0.00,Rainwise IP-100,2013-09-10 22:56:00,
2013-09-10 18:01:00,88.5,66.0,28.56,ESE,112,7.2,13.0,47,0.00,,,0.00,Rainwise IP-100,2013-09-10 23:01:00,
2013-09-10 18:06:00,88.3,65.0,28.57,SE,135,6.5,11.0,47,0.00,,,0.00,Rainwise IP-100,2013-09-10 23:06:00,
2013-09-10 18:11:00,88.1,66.0,28.57,ENE,67,10.0,14.0,48,0.00,,,0.00,Rainwise IP-100,2013-09-10 23:11:00,
2013-09-10 18:16:00,87.8,66.0,28.57,ESE,112,2.3,16.0,48,0.00,,,0.00,Rainwise IP-100,2013-09-10 23:16:00,
2013-09-10 18:21:00,87.7,65.0,28.58,SSE,157,3.3,14.0,47,0.00,,,0.00,Rainwise IP-100,2013-09-10 23:21:00,
2013-09-10 18:26:00,87.5,65.0,28.58,SSE,157,8.2,12.0,47,0.00,,,0.00,Rainwise IP-100,2013-09-10 23:26:00,
2013-09-10 18:31:00,87.2,64.0,28.58,ENE,67,6.3,11.0,47,0.00,,,0.00,Rainwise IP-100,2013-09-10 23:31:00,
2013-09-10 18:36:00,87.1,65.0,28.58,East,90,5.6,15.0,48,0.00,,,0.00,Rainwise IP-100,2013-09-10 23:36:00,
2013-09-10 18:41:00,86.8,64.0,28.58,East,90,5.4,12.0,48,0.00,,,0.00,Rainwise IP-100,2013-09-10 23:41:00,
2013-09-10 18:46:00,86.4,64.0,28.57,East,90,3.7,11.0,48,0.00,,,0.00,Rainwise IP-100,2013-09-10 23:46:00,
2013-09-10 18:51:00,86.1,64.0,28.58,SSE,157,5.8,12.0,48,0.00,,,0.00,Rainwise IP-100,2013-09-10 23:51:00,
2013-09-10 18:53:00,86.0,64.0,28.58,ESE,112,5.6,13.0,49,0.00,,,0.00,Rainwise IP-100,2013-09-10 23:53:00,
2013-09-10 18:58:00,86.1,64.0,28.58,East,90,7.0,14.0,49,0.00,,,0.00,Rainwise IP-100,2013-09-10 23:58:00,
2013-09-10 19:03:00,86.1,64.0,28.58,SE,135,3.3,12.0,49,0.00,,,0.00,Rainwise IP-100,2013-09-11 00:03:00,
2013-09-10 19:08:00,86.0,64.0,28.58,SSE,157,5.4,11.0,49,0.00,,,0.00,Rainwise IP-100,2013-09-11 00:08:00,
2013-09-10 19:13:00,86.0,65.0,28.58,SE,135,8.6,10.0,50,0.00,,,0.00,Rainwise IP-100,2013-09-11 00:13:00,
2013-09-10 19:18:00,86.0,65.0,28.58,ESE,112,7.9,11.0,50,0.00,,,0.00,Rainwise IP-100,2013-09-11 00:18:00,
2013-09-10 19:23:00,85.9,65.0,28.58,ESE,112,7.0,11.0,50,0.00,,,0.00,Rainwise IP-100,2013-09-11 00:23:00,
2013-09-10 19:28:00,85.8,65.0,28.59,SE,135,10.7,11.0,51,0.00,,,0.00,Rainwise IP-100,2013-09-11 00:28:00,
2013-09-10 19:33:00,85.5,66.0,28.59,ESE,112,4.7,16.0,52,0.00,,,0.00,Rainwise IP-100,2013-09-11 00:33:00,
2013-09-10 19:38:00,85.3,65.0,28.59,SE,135,6.1,10.0,52,0.00,,,0.00,Rainwise IP-100,2013-09-11 00:38:00,
2013-09-10 19:43:00,85.1,66.0,28.58,SSE,157,6.8,11.0,53,0.00,,,0.00,Rainwise IP-100,2013-09-11 00:43:00,
2013-09-10 19:48:00,85.1,66.0,28.59,ESE,112,8.2,12.0,53,0.00,,,0.00,Rainwise IP-100,2013-09-11 00:48:00,
2013-09-10 19:53:00,84.9,66.0,28.58,ENE,67,7.7,14.0,53,0.00,,,0.00,Rainwise IP-100,2013-09-11 00:53:00,
2013-09-10 19:58:00,84.8,66.0,28.59,ESE,112,4.4,15.0,53,0.00,,,0.00,Rainwise IP-100,2013-09-11 00:58:00,
2013-09-10 20:03:00,84.7,66.0,28.59,East,90,6.3,15.0,53,0.00,,,0.00,Rainwise IP-100,2013-09-11 01:03:00,
2013-09-10 20:08:00,84.4,66.0,28.60,SSE,157,6.1,12.0,54,0.00,,,0.00,Rainwise IP-100,2013-09-11 01:08:00,
2013-09-10 20:13:00,83.8,66.0,28.60,SE,135,9.3,17.0,55,0.00,,,0.00,Rainwise IP-100,2013-09-11 01:13:00,
2013-09-10 20:18:00,82.9,66.0,28.61,ESE,112,10.0,19.0,57,0.00,,,0.00,Rainwise IP-100,2013-09-11 01:18:00,
2013-09-10 20:23:00,82.0,66.0,28.61,ESE,112,13.3,17.0,60,0.00,,,0.00,Rainwise IP-100,2013-09-11 01:23:00,
2013-09-10 20:28:00,81.6,66.0,28.61,SSE,157,12.6,15.0,61,0.00,,,0.00,Rainwise IP-100,2013-09-11 01:28:00,
2013-09-10 20:33:00,81.3,67.0,28.61,SE,135,6.8,13.0,62,0.00,,,0.00,Rainwise IP-100,2013-09-11 01:33:00,
2013-09-10 20:38:00,81.0,67.0,28.62,ESE,112,5.1,11.0,63,0.00,,,0.00,Rainwise IP-100,2013-09-11 01:38:00,
2013-09-10 20:43:00,80.9,67.0,28.62,SSE,157,5.8,10.0,64,0.00,,,0.00,Rainwise IP-100,2013-09-11 01:43:00,
2013-09-10 20:48:00,80.7,67.0,28.62,SSE,157,6.8,14.0,64,0.00,,,0.00,Rainwise IP-100,2013-09-11 01:48:00,
2013-09-10 20:53:00,80.6,67.0,28.62,ESE,112,4.9,11.0,65,0.00,,,0.00,Rainwise IP-100,2013-09-11 01:53:00,
2013-09-10 20:58:00,80.4,67.0,28.63,SSE,157,5.6,13.0,65,0.00,,,0.00,Rainwise IP-100,2013-09-11 01:58:00,
2013-09-10 21:03:00,80.0,68.0,28.63,SSW,202,6.5,11.0,67,0.00,,,0.00,Rainwise IP-100,2013-09-11 02:03:00,
2013-09-10 21:08:00,79.3,68.0,28.63,South,180,4.7,11.0,69,0.00,,,0.00,Rainwise IP-100,2013-09-11 02:08:00,
2013-09-10 21:13:00,78.7,68.0,28.64,SSW,202,4.9,11.0,71,0.00,,,0.00,Rainwise IP-100,2013-09-11 02:13:00,
2013-09-10 21:18:00,78.0,69.0,28.63,SSE,157,5.6,8.0,73,0.00,,,0.00,Rainwise IP-100,2013-09-11 02:18:00,
2013-09-10 21:23:00,77.5,69.0,28.64,SSE,157,4.0,8.0,74,0.00,,,0.00,Rainwise IP-100,2013-09-11 02:23:00,
2013-09-10 21:28:00,77.2,69.0,28.64,SSE,157,4.0,8.0,75,0.00,,,0.00,Rainwise IP-100,2013-09-11 02:28:00,
2013-09-10 21:33:00,76.9,69.0,28.64,SSE,157,3.5,9.0,76,0.00,,,0.00,Rainwise IP-100,2013-09-11 02:33:00,
2013-09-10 21:38:00,76.7,69.0,28.64,SE,135,3.0,6.0,76,0.00,,,0.00,Rainwise IP-100,2013-09-11 02:38:00,
2013-09-10 21:43:00,76.5,69.0,28.64,South,180,1.6,6.0,77,0.00,,,0.00,Rainwise IP-100,2013-09-11 02:43:00,
2013-09-10 21:48:00,76.3,68.0,28.64,SE,135,6.3,7.0,77,0.00,,,0.00,Rainwise IP-100,2013-09-11 02:48:00,
2013-09-10 21:53:00,76.2,69.0,28.64,SSW,202,2.6,7.0,78,0.00,,,0.00,Rainwise IP-100,2013-09-11 02:53:00,
2013-09-10 21:58:00,76.0,68.0,28.65,SE,135,0.0,4.0,78,0.00,,,0.00,Rainwise IP-100,2013-09-11 02:58:00,
2013-09-10 22:03:00,75.9,68.0,28.65,South,180,1.9,4.0,78,0.00,,,0.00,Rainwise IP-100,2013-09-11 03:03:00,
2013-09-10 22:08:00,75.8,68.0,28.65,South,180,0.0,3.0,79,0.00,,,0.00,Rainwise IP-100,2013-09-11 03:08:00,
2013-09-10 22:13:00,75.6,68.0,28.65,SSW,202,1.9,2.0,79,0.00,,,0.00,Rainwise IP-100,2013-09-11 03:13:00,
2013-09-10 22:18:00,75.5,68.0,28.66,SSW,202,1.9,2.0,79,0.00,,,0.00,Rainwise IP-100,2013-09-11 03:18:00,
2013-09-10 22:23:00,75.3,68.0,28.66,South,180,1.4,4.0,80,0.00,,,0.00,Rainwise IP-100,2013-09-11 03:23:00,
2013-09-10 22:28:00,75.2,68.0,28.65,SSW,202,3.5,3.5,80,0.00,,,0.00,Rainwise IP-100,2013-09-11 03:28:00,
2013-09-10 22:33:00,75.1,69.0,28.65,SSW,202,2.1,3.0,81,0.00,,,0.00,Rainwise IP-100,2013-09-11 03:33:00,
2013-09-10 22:38:00,74.9,69.0,28.65,South,180,0.0,4.0,82,0.00,,,0.00,Rainwise IP-100,2013-09-11 03:38:00,
2013-09-10 22:43:00,74.7,69.0,28.66,South,180,0.0,2.0,82,0.00,,,0.00,Rainwise IP-100,2013-09-11 03:43:00,
2013-09-10 22:48:00,74.5,69.0,28.66,South,180,0.0,1.0,82,0.00,,,0.00,Rainwise IP-100,2013-09-11 03:48:00,
2013-09-10 22:53:00,74.4,69.0,28.66,South,180,1.4,1.4,83,0.00,,,0.00,Rainwise IP-100,2013-09-11 03:53:00,
2013-09-10 22:58:00,74.3,69.0,28.66,South,180,0.0,1.0,83,0.00,,,0.00,Rainwise IP-100,2013-09-11 03:58:00,
2013-09-10 23:01:00,74.1,69.0,28.66,South,180,0.0,1.0,83,0.00,,,0.00,Rainwise IP-100,2013-09-11 04:01:00,
2013-09-10 23:06:00,73.9,69.0,28.66,South,180,0.0,0.0,83,0.00,,,0.00,Rainwise IP-100,2013-09-11 04:06:00,
2013-09-10 23:11:00,73.6,69.0,28.66,South,180,0.0,0.0,84,0.00,,,0.00,Rainwise IP-100,2013-09-11 04:11:00,
2013-09-10 23:16:00,73.4,69.0,28.66,South,180,0.0,0.0,85,0.00,,,0.00,Rainwise IP-100,2013-09-11 04:16:00,
2013-09-10 23:21:00,73.3,69.0,28.66,South,180,0.0,0.0,85,0.00,,,0.00,Rainwise IP-100,2013-09-11 04:21:00,
2013-09-10 23:26:00,73.2,69.0,28.66,South,180,0.0,0.0,86,0.00,,,0.00,Rainwise IP-100,2013-09-11 04:26:00,
2013-09-10 23:31:00,73.0,69.0,28.66,South,180,0.0,0.0,86,0.00,,,0.00,Rainwise IP-100,2013-09-11 04:31:00,
2013-09-10 23:36:00,72.7,68.0,28.66,South,180,0.0,1.0,86,0.00,,,0.00,Rainwise IP-100,2013-09-11 04:36:00,
2013-09-10 23:41:00,72.6,68.0,28.66,South,180,1.6,2.0,86,0.00,,,0.00,Rainwise IP-100,2013-09-11 04:41:00,
2013-09-10 23:46:00,72.6,68.0,28.66,South,180,0.0,2.0,87,0.00,,,0.00,Rainwise IP-100,2013-09-11 04:46:00,
2013-09-10 23:51:00,72.7,69.0,28.66,South,180,2.6,3.0,88,0.00,,,0.00,Rainwise IP-100,2013-09-11 04:51:00,
2013-09-10 23:56:00,72.8,69.0,28.66,South,180,2.1,3.0,88,0.00,,,0.00,Rainwise IP-100,2013-09-11 04:56:00,